Regional Weather Roundup
Issued by NWS

Home | Current Version | Previous Version | Text Only | Print | Product List | Glossary Off
Versions: 1 2 3 4 5 6 7 8 9 10 11 12 13 14 15 16 17 18 19 20 21 22 23 24 25 26 27 28 29 30 31 32 33 34 35 36 37 38 39 40 41 42 43 44 45 46 47 48 49 50

921
ASUS43 KLSX 131410
RWRMO

WEATHER SUMMARY FOR MISSOURI
NATIONAL WEATHER SERVICE SPRINGFIELD MO
800 AM CST SAT FEB 13 2016

NOTE: "FAIR" INDICATES FEW OR NO CLOUDS BELOW 12,000 FEET WITH NO
       SIGNIFICANT WEATHER AND/OR OBSTRUCTIONS TO VISIBILITY.
       CURRENT SKY AND/OR WEATHER CONDITIONS ARE NOT AVAILABLE FOR
       CHILLICOTHE AND FARMINGTON.

MOZ001>031-035>038-043-044-053-054-131500-
...NORTHERN AND WESTERN MISSOURI...

CITY           SKY/WX    TMP DP  RH WIND       PRES   REMARKS
KANSAS CTY INT CLOUDY    16   3  56 E9        30.59F WCI   4
KANSAS C DTWN  CLOUDY    18   4  54 E8        30.61F WCI   8
LEE`S SUMMIT   CLOUDY    16   3  56 E10       30.60S WCI   4
ST JOSEPH      CLOUDY    14   2  58 E8        30.62F WCI   3
CHILLICOTHE      N/A     12   1  61 E5        30.67S WCI   4
KIRKSVILLE     PTCLDY     8  -3  61 N3        30.66R

$$
MOZ066>068-077>081-088>096-101>105-131500-
...SOUTHWEST MISSOURI...

CITY           SKY/WX    TMP DP  RH WIND       PRES   REMARKS
SPRINGFIELD    CLOUDY    22   0  38 NE12      30.54R WCI  10
JOPLIN         CLOUDY    23   8  52 NE9       30.56R WCI  13

$$
MOZ032>034-039>042-045>050-055>058-069>072-131500-
...CENTRAL MISSOURI...

CITY           SKY/WX    TMP DP  RH WIND       PRES   REMARKS
COLUMBIA       CLOUDY    12   2  64 NE6       30.63S WCI   3
JEFFERSON CITY CLOUDY    14   1  56 NE7       30.67R WCI   4
ROLLA          CLOUDY    14   3  61 NE7       30.58R WCI   4
SEDALIA        CLOUDY    16   3  56 NE8       30.63F WCI   5
WHITEMAN AFB   CLOUDY    15   2  55 NE9       30.62R WCI   3
WARRENSBURG    CLOUDY    16   3  57 NE6       30.65R WCI   7
OSAGE BEACH    CLOUDY    18   3  53 NE8       30.61S WCI   7

$$
MOZ051-052-059>065-131500-
...EAST CENTRAL MISSOURI...

CITY           SKY/WX    TMP DP  RH WIND       PRES   REMARKS
ST LOUIS INTL  PTSUNNY   13   0  56 N9        30.67R WCI   1
SPIRIT OF STL  CLOUDY    12   0  58 N6        30.68R WCI   3
ST CHARLES     MOSUNNY   12   0  58 N7        30.69R WCI   1

$$
MOZ072>076-082>087-097>100-106>115-131500-
...SOUTH CENTRAL AND SOUTHEAST MISSOURI...

CITY           SKY/WX    TMP DP  RH WIND       PRES   REMARKS
CAPE GIRARDEAU CLOUDY    17   6  62 N12       30.65R WCI   4
FARMINGTON     CLOUDY    13   3  64 N8        30.62R WCI   2
POPLAR BLUFF   CLOUDY    21   5  50 NE12      30.62R WCI   9
WEST PLAINS    CLOUDY    20  -3  36 NE13      30.55R WCI   7

$$




USA.gov is the U.S. government's official web portal to all federal, state and local government web resources and services.